Weather History for KMCB - June, 2014

Change the Weather History Date:

Sunday, June 29, 2014

  Actual Average Record
Temperature  
Mean Temperature 82 °F -  
Max Temperature 90 °F 91 °F 102 °F (1969)
Min Temperature 73 °F 68 °F 57 °F (1974)
Cooling Degree Days 16    
Growing Degree Days 32 (Base 50)    
Moisture  
Dew Point 74 °F    
Average Humidity 85    
Maximum Humidity 97    
Minimum Humidity 54    
Precipitation  
Precipitation 0.00 in - - ()
Sea Level Pressure  
Sea Level Pressure 30.12 in    
Wind  
Wind Speed 4 mph (South)    
Max Wind Speed 12 mph    
Max Gust Speed -    
Visibility 6 miles    
Events Fog    
Averages and records for this station are not official NWS values.
T = Trace of Precipitation, MM = Missing Value Source: NWS Daily Summary

Daily Weather History Graph

Daily Weather History Graph

Search for Another Location

Airport or City:

Trip Planner

Search our weather history database for the weather conditions in past years. The results will help you decide how hot, cold, wet, or windy it might be!

Date:

Astronomy

Jun. 29, 2014 Rise Set
Actual Time 6:00 AM CDT 8:09 PM CDT
Civil Twilight 5:32 AM CDT 8:37 PM CDT
Nautical Twilight 4:58 AM CDT 9:11 PM CDT
Astronomical Twilight 4:22 AM CDT 9:48 PM CDT
Moon 8:08 AM CDT (6/29) 9:42 PM CDT (6/29)
Length of Visible Light 15h 04m
Length of Day
14h 09m
Waxing Crescent, 5% of the Moon is Illuminated
Jun 29
Waxing Crescent
Jul 5
First Quarter
Jul 12
Full
Jul 18
Last Quarter
Jul 26
New

Hourly Weather History & Observations

Time (CDT) Temp. Heat Index Dew Point Humidity Pressure Visibility Wind Dir Wind Speed Gust Speed Precip Events Conditions
12:23 AM 77.0 °F - 75.0 °F 94% 30.14 in 6.0 mi Calm Calm - N/A   Mostly Cloudy
12:53 AM 75.0 °F - 73.9 °F 96% 30.12 in 3.0 mi Calm Calm - N/A   Mostly Cloudy
1:21 AM 75.0 °F - 73.0 °F 94% 30.13 in 4.0 mi SE 3.5 mph - N/A   Overcast
1:34 AM 75.0 °F - 73.0 °F 94% 30.12 in 5.0 mi SE 3.5 mph - N/A   Overcast
1:45 AM 75.0 °F - 73.9 °F 96% 30.12 in 1.8 mi Calm Calm - N/A   Overcast
1:53 AM 75.0 °F - 73.9 °F 96% 30.11 in 1.5 mi Calm Calm - N/A   Overcast
2:09 AM 75.0 °F - 73.0 °F 94% 30.12 in 2.5 mi Calm Calm - N/A   Overcast
2:12 AM 75.0 °F - 73.0 °F 94% 30.12 in 3.0 mi Calm Calm - N/A   Overcast
2:23 AM 75.0 °F - 73.0 °F 94% 30.12 in 2.0 mi Calm Calm - N/A   Overcast
2:38 AM 75.0 °F - 73.0 °F 94% 30.12 in 3.0 mi Calm Calm - N/A   Overcast
2:44 AM 73.9 °F - 73.0 °F 97% 30.12 in 1.5 mi Calm Calm - N/A   Overcast
2:53 AM 73.9 °F - 72.0 °F 93% 30.10 in 0.8 mi SSE 4.6 mph - N/A   Overcast
3:02 AM 73.9 °F - 73.0 °F 97% 30.11 in 1.0 mi South 3.5 mph - N/A   Overcast
3:12 AM 73.9 °F - 73.0 °F 97% 30.11 in 0.5 mi SSE 3.5 mph - N/A Fog Fog
3:24 AM 75.0 °F - 73.0 °F 94% 30.10 in 0.2 mi South 4.6 mph - N/A Fog Fog
3:42 AM 75.0 °F - 73.9 °F 96% 30.10 in 0.8 mi South 5.8 mph - N/A   Mist
3:49 AM 75.2 °F - 73.4 °F 94% 30.10 in 2.0 mi South 6.9 mph - N/A   Overcast
3:53 AM 75.0 °F - 73.9 °F 96% 30.09 in 3.0 mi South 5.8 mph - N/A   Overcast
4:19 AM 75.9 °F - 75.0 °F 97% 30.10 in 2.5 mi South 6.9 mph - N/A   Overcast
4:33 AM 75.9 °F - 75.0 °F 97% 30.10 in 4.0 mi South 8.1 mph - N/A   Overcast
4:53 AM 75.9 °F - 75.0 °F 97% 30.09 in 4.0 mi South 8.1 mph - N/A   Overcast
5:53 AM 77.0 °F - 75.0 °F 94% 30.11 in 6.0 mi South 5.8 mph - N/A   Overcast
6:53 AM 77.0 °F - 75.0 °F 94% 30.12 in 4.0 mi South 5.8 mph - N/A   Overcast
7:04 AM 77.0 °F - 75.0 °F 94% 30.14 in 4.0 mi South 4.6 mph - N/A   Overcast
7:34 AM 77.0 °F - 75.9 °F 96% 30.15 in 4.0 mi SSW 6.9 mph - N/A   Overcast
7:53 AM 78.1 °F - 75.9 °F 93% 30.14 in 5.0 mi SSW 5.8 mph - N/A   Overcast
8:14 AM 79.0 °F - 77.0 °F 94% 30.16 in 7.0 mi South 6.9 mph - N/A   Mostly Cloudy
8:53 AM 80.1 °F 85.1 °F 75.0 °F 85% 30.15 in 10.0 mi SSW 11.5 mph - N/A   Mostly Cloudy
9:03 AM 81.0 °F 86.7 °F 75.0 °F 82% 30.17 in 10.0 mi SSW 8.1 mph - N/A   Mostly Cloudy
9:33 AM 82.0 °F 87.9 °F 73.9 °F 76% 30.17 in 10.0 mi SSW 9.2 mph - N/A   Scattered Clouds
9:53 AM 82.9 °F 89.4 °F 73.9 °F 74% 30.16 in 10.0 mi South 11.5 mph - N/A   Clear
10:34 AM 82.9 °F 89.4 °F 73.9 °F 74% 30.17 in 10.0 mi SW 8.1 mph - N/A   Mostly Cloudy
10:53 AM 86.0 °F 93.8 °F 73.9 °F 67% 30.16 in 10.0 mi South 8.1 mph - N/A   Scattered Clouds
11:53 AM 87.1 °F 94.5 °F 73.0 °F 63% 30.16 in 10.0 mi South 9.2 mph - N/A   Clear
12:53 PM 88.0 °F 94.7 °F 72.0 °F 59% 30.16 in 10.0 mi SSW 11.5 mph - N/A   Partly Cloudy
1:53 PM 89.1 °F 97.0 °F 73.0 °F 59% 30.14 in 10.0 mi SSW 8.1 mph - N/A   Scattered Clouds
2:53 PM 89.1 °F 96.0 °F 72.0 °F 57% 30.12 in 10.0 mi South 9.2 mph - N/A   Scattered Clouds
3:53 PM 90.0 °F 96.4 °F 71.1 °F 54% 30.11 in 10.0 mi SSW 9.2 mph - N/A   Partly Cloudy
4:53 PM 90.0 °F 96.9 °F 72.0 °F 55% 30.09 in 10.0 mi SW 5.8 mph - N/A   Partly Cloudy
5:53 PM 89.1 °F 97.0 °F 73.0 °F 59% 30.07 in 10.0 mi SSW 6.9 mph - N/A   Partly Cloudy
6:53 PM 87.1 °F 94.5 °F 73.0 °F 63% 30.07 in 10.0 mi SSW 4.6 mph - N/A   Clear
7:53 PM 82.9 °F 90.2 °F 75.0 °F 77% 30.06 in 10.0 mi Calm Calm - N/A   Clear
8:53 PM 79.0 °F - 75.0 °F 88% 30.07 in 10.0 mi Calm Calm - N/A   Clear
9:53 PM 79.0 °F - 75.0 °F 88% 30.08 in 9.0 mi Calm Calm - N/A   Clear
10:53 PM 77.0 °F - 73.9 °F 90% 30.08 in 9.0 mi South 3.5 mph - N/A   Clear
11:53 PM 77.0 °F - 73.9 °F 90% 30.07 in 8.0 mi Calm Calm - N/A   Clear